Lapse_Rate
0.9 0.8 0.6 0.6 0.5 0.5 0.5 0.5 0.3 0.2 0.3 0.6 1.1 1.4 1.6 1.3 3.0 2.4 0.2 1.2 0.9 1.0 0.6 0.4 2.6 5.7 6.1 4.6 4.6 4.2 6.5 6.5 6.5 6.5 6.5 5.1 6.1 5.7 5.2 3.7 5.6 6.4 5.9 6.3 6.2
0.8 0.5 0.3 0.3 0.4 0.4 0.7 0.4 0.2 0.3 0.3 0.5 1.1 1.5 1.9 1.4 2.6 0.9 1.8 1.8 1.8 1.2 2.1 2.5 4.7 4.6 3.5 4.7 3.4 4.7 6.5 6.5 6.4 5.9 6.5 5.2 5.2 5.1 5.5 5.7 5.8 5.8 6.0 5.6 5.2
0.7 0.4 0.2 0.3 0.2 0.4 0.4 0.4 0.3 0.2 0.4 0.6 1.0 1.4 1.5 1.4 4.4 3.2 2.8 2.6 2.2 1.8 1.6 3.2 4.0 5.7 5.3 4.4 4.7 5.8 6.5 6.4 5.6 4.3 4.9 5.4 5.7 5.9 5.3 6.4 5.8 5.5 5.7 5.5 4.7
0.7 0.5 0.1 0.2 0.1 0.2 0.4 0.5 0.4 0.3 0.5 1.0 1.1 1.4 1.9 2.7 6.5 3.0 2.8 2.7 2.9 2.6 2.7 4.9 5.5 5.8 5.8 6.5 5.1 6.3 5.7 5.4 6.1 4.6 5.0 6.1 5.5 5.3 4.8 5.5 5.3 5.2 5.6 5.1 4.3
0.7 0.4 0.1 0.1 0.1 0.1 0.1 0.3 0.5 0.6 0.6 1.3 1.3 1.8 3.2 4.9 3.6 3.5 3.0 3.1 3.3 3.5 4.2 4.9 5.5 4.9 6.5 5.5 5.4 6.4 6.2 5.4 4.2 4.1 4.8 4.5 5.4 5.7 5.5 5.1 5.2 5.7 5.5 4.7 3.9
0.7 0.5 0.2 -0.0 0.1 0.1 0.1 0.2 0.4 0.6 0.8 1.2 1.5 2.1 3.9 6.4 3.5 3.5 3.1 2.5 2.1 3.7 2.6 2.9 4.6 4.0 4.8 5.7 6.1 5.2 5.0 5.5 4.7 4.9 5.7 5.8 5.9 5.5 5.8 5.3 5.5 5.6 4.8 4.4 4.6
0.9 0.6 0.1 -0.1 -0.1 -0.0 0.0 0.1 0.4 0.7 1.1 1.5 1.8 2.7 3.8 4.5 3.8 4.1 3.3 3.6 2.9 3.8 3.9 3.4 4.5 3.9 4.7 5.8 4.9 4.4 6.5 6.0 5.9 5.9 6.2 4.9 6.5 6.5 5.0 5.4 5.6 5.2 4.9 5.1 5.1
0.9 0.5 0.2 -0.1 -0.1 -0.0 -0.1 0.5 0.7 1.1 1.5 1.9 2.6 3.1 3.8 4.8 4.2 3.7 3.1 4.2 4.0 4.3 3.5 3.6 3.2 3.3 4.9 4.2 5.6 6.5 6.5 6.5 6.4 5.9 5.6 6.3 6.5 6.2 4.8 4.7 4.6 4.4 4.1 5.1 5.8
0.7 0.4 0.3 0.0 -0.0 0.1 0.4 0.6 1.1 1.6 1.9 2.6 3.8 4.7 5.5 4.9 4.5 3.7 3.6 4.1 3.7 4.9 4.7 5.3 3.5 4.6 5.6 6.5 6.5 6.5 6.5 6.5 6.5 5.6 6.4 6.4 6.5 5.9 4.8 4.6 4.3 3.5 3.7 4.4 4.8
1.0 0.3 0.2 0.2 0.4 0.3 0.7 1.3 1.7 2.3 3.0 3.7 4.6 5.3 5.5 5.1 4.2 3.8 4.0 4.0 5.2 5.5 5.2 5.8 3.3 6.5 6.5 6.5 6.5 6.5 6.5 6.5 6.5 6.5 6.5 6.5 6.5 6.1 4.8 4.6 3.9 3.3 3.4 3.7 4.2
1.2 0.7 0.3 0.3 0.5 0.9 0.6 1.3 2.7 3.6 2.8 5.4 5.1 5.5 5.5 5.0 4.2 4.7 4.3 4.3 5.4 5.9 6.5 5.7 6.5 6.5 6.5 6.5 6.5 6.5 6.5 6.5 6.5 6.5 6.5 6.5 6.5 6.5 4.8 4.9 3.8 3.1 3.4 3.5 4.0
1.7 0.9 0.8 0.8 0.8 1.0 0.2 2.3 4.5 4.0 5.0 5.4 5.6 5.0 5.1 5.1 6.0 5.5 4.1 5.8 6.1 6.5 6.4 6.5 6.5 6.5 6.5 6.5 6.5 6.5 6.5 6.5 6.5 6.5 6.5 6.5 6.5 6.5 5.6 5.5 3.9 3.5 3.4 3.6 4.6
2.1 1.2 1.2 1.1 1.3 0.4 0.4 3.4 3.5 4.1 5.2 6.1 6.5 6.2 5.3 5.1 5.9 5.5 4.7 5.9 6.4 6.5 6.5 6.5 6.5 6.5 6.5 6.5 6.5 6.5 6.5 6.5 6.5 6.5 6.5 6.5 6.5 6.5 6.3 5.2 4.3 3.9 3.8 3.6 4.0
2.7 1.8 1.3 1.4 1.1 0.4 1.5 2.5 3.7 3.3 6.5 6.5 6.1 6.0 5.4 6.1 6.0 5.6 4.4 5.5 6.3 6.5 6.5 6.5 6.5 6.5 6.5 6.5 6.5 6.5 6.5 6.5 6.5 6.5 6.5 6.5 6.5 6.5 6.5 6.5 6.0 4.5 2.6 3.2 3.9
3.3 2.3 1.5 2.1 1.3 3.0 3.4 2.6 2.9 3.1 6.5 6.5 6.5 6.6 6.6 6.2 5.4 6.1 5.2 5.8 6.5 6.5 6.5 6.5 6.5 6.5 6.5 6.5 6.5 6.5 6.5 6.5 6.5 6.5 6.5 6.5 6.5 6.5 6.5 6.5 6.5 5.4 3.2 2.9 3.2
3.7 2.8 2.3 3.0 1.4 2.5 3.4 2.4 2.3 6.5 6.5 6.5 6.2 6.5 6.4 6.5 6.5 6.3 6.3 5.6 5.7 6.5 6.6 6.5 6.5 6.4 6.5 6.5 6.5 6.5 6.5 6.5 6.5 6.5 6.5 6.5 6.5 6.5 6.5 6.5 6.5 5.5 3.7 3.3 2.9
3.8 3.3 2.5 1.8 2.9 3.8 2.4 2.3 6.5 6.5 6.5 6.5 6.5 6.5 6.5 6.5 6.5 6.5 6.5 6.5 6.5 6.5 6.5 6.5 6.5 6.4 5.9 6.5 6.5 6.5 6.5 6.5 6.5 6.5 6.5 6.5 6.5 6.5 6.5 6.5 6.2 6.3 5.3 2.7 3.5
3.5 3.8 3.1 3.2 3.4 3.2 2.3 5.9 6.5 6.5 6.5 6.5 6.5 6.5 6.5 6.5 6.5 6.5 6.5 6.5 6.5 6.5 6.5 6.5 6.5 6.5 6.5 6.5 6.5 6.5 6.5 6.5 6.5 6.5 6.5 6.5 6.5 6.5 6.5 4.8 3.7 4.6 4.8 3.0 3.3
3.4 3.6 2.8 2.0 4.0 2.7 3.6 6.5 6.5 6.5 6.5 6.5 6.5 6.5 6.5 6.5 6.5 6.5 6.5 6.5 6.5 6.5 6.5 6.5 6.5 6.5 6.5 6.4 6.5 6.5 6.5 6.5 6.5 6.5 6.5 6.5 6.5 6.5 6.5 6.5 5.3 4.7 4.4 3.8 3.3
4.2 4.2 4.3 3.0 4.1 3.8 5.8 6.5 6.5 6.4 6.4 6.5 6.5 6.5 6.5 6.5 6.5 6.5 6.5 6.5 6.5 6.1 5.9 6.5 6.5 6.5 6.5 6.4 6.4 6.5 6.5 6.5 6.5 6.5 6.5 6.5 6.5 6.5 6.5 6.5 6.5 6.1 5.9 4.1 3.1
4.8 5.8 4.9 4.6 4.2 5.0 6.5 6.5 6.5 5.9 5.8 6.5 6.5 6.5 6.5 6.5 6.5 6.5 6.5 6.5 6.5 6.5 5.7 6.5 6.5 6.5 6.5 6.5 6.5 6.5 6.5 6.5 6.5 6.5 6.5 6.5 6.5 6.5 6.5 6.5 6.5 6.1 5.5 3.8 3.1
4.9 6.5 4.9 5.9 6.3 6.2 6.5 6.5 5.2 6.3 5.8 6.5 6.5 6.5 6.5 6.5 6.5 6.5 6.5 6.5 4.6 5.0 6.5 6.5 6.5 6.5 6.5 6.5 6.5 6.5 6.5 6.5 6.5 6.5 6.5 6.5 6.5 6.5 6.5 6.1 5.8 5.7 4.9 3.7 2.7
5.8 5.2 5.1 6.6 6.5 6.5 6.4 6.5 6.3 6.5 6.5 6.5 6.5 6.5 6.5 6.5 6.5 6.5 6.5 6.1 4.9 6.3 6.5 6.5 6.5 6.5 6.5 6.5 6.5 6.5 6.5 6.5 6.5 6.5 6.5 6.5 6.5 6.5 6.3 6.2 4.2 4.2 3.7 2.7 2.2
4.1 6.5 5.3 5.1 5.2 6.5 6.5 6.5 6.5 4.6 6.4 6.0 6.5 6.3 6.5 6.5 6.5 6.5 6.5 6.5 5.2 5.9 5.9 5.4 6.5 6.5 6.5 6.5 6.5 6.5 6.5 6.5 6.5 6.5 6.5 6.5 6.5 6.5 6.5 6.5 5.2 3.8 3.3 2.0 2.2
4.5 6.5 5.9 6.5 6.5 6.5 6.5 6.5 6.5 6.5 5.6 4.7 6.5 6.5 6.5 6.5 6.5 6.5 6.5 6.5 6.3 6.6 6.0 6.5 6.5 6.5 6.5 6.5 6.5 6.5 6.5 6.5 6.5 6.5 6.5 6.5 6.5 6.5 6.5 6.5 2.9 1.9 2.7 2.4 2.5
5.7 6.2 5.7 6.5 6.1 6.5 6.5 6.5 6.5 6.5 6.5 6.5 6.5 6.5 6.5 6.5 6.5 6.5 6.5 6.5 6.5 6.3 6.5 6.4 6.5 6.5 6.5 6.5 6.5 6.5 6.5 6.5 6.5 6.5 6.5 6.5 6.5 6.5 4.0 2.5 2.2 1.9 2.5 3.5 2.6
4.0 5.0 5.9 6.5 6.5 6.5 6.5 6.5 6.5 6.5 5.5 6.0 6.4 6.5 6.5 6.5 4.2 5.1 4.3 4.9 6.2 6.5 6.5 6.5 6.5 6.5 6.5 6.5 6.5 6.5 6.5 6.5 6.5 6.5 6.5 6.5 6.5 6.5 6.5 6.1 3.0 2.4 1.6 2.4 1.5
Wind_Speed
4 5 6 7 9 9 10 11 11 11 10 11 12 14 17 19 12 4 6 6 8 20 18 7 4 5 2 4 4 3 5 4 7 8 6 5 6 5 3 7 5 5 5 6 5
4 4 6 7 8 9 10 11 11 11 10 11 12 14 17 16 2 7 3 13 14 15 6 7 5 7 4 5 5 5 5 2 2 8 10 6 8 8 6 5 5 6 6 8 7
5 4 5 6 7 9 10 11 11 11 11 11 11 14 15 11 1 3 15 16 15 12 5 2 2 2 5 6 5 3 4 2 7 9 11 10 6 3 13 5 2 7 7 6 7
5 4 4 7 7 8 9 10 10 10 10 11 11 13 15 2 2 3 19 20 20 10 4 2 1 4 4 4 5 7 7 6 2 6 8 5 5 5 4 6 8 8 7 6 7
7 5 4 6 7 8 9 10 10 9 8 10 10 13 4 3 1 8 17 16 10 5 2 2 4 5 5 6 8 8 3 6 8 11 8 11 6 7 5 7 9 9 8 7 7
9 7 5 5 6 8 9 10 10 9 9 9 9 9 1 1 4 10 13 8 7 4 5 7 3 6 7 5 6 5 9 6 8 8 4 9 4 5 5 7 8 8 7 7 7
12 9 6 4 6 7 9 10 9 9 9 10 8 2 4 1 5 10 9 4 6 2 4 5 1 6 5 8 7 9 9 7 4 3 4 10 2 3 7 8 8 8 7 6 6
13 10 7 5 5 7 8 10 10 9 10 8 7 1 2 1 4 5 7 4 6 5 4 4 9 8 5 7 4 5 5 4 4 5 5 3 4 5 9 9 9 8 7 6 5
15 12 9 6 5 5 9 9 11 10 9 7 2 2 1 2 2 4 3 2 5 2 4 3 6 5 4 7 5 1 3 4 2 6 4 4 3 6 9 9 9 8 8 7 6
17 15 11 7 6 5 9 10 6 8 4 3 1 3 0 1 2 3 3 3 2 1 3 3 5 4 2 3 5 7 4 3 5 5 5 5 3 6 9 9 11 10 9 9 8
19 17 14 10 5 4 6 2 4 3 8 1 2 4 3 1 1 3 2 4 1 2 3 1 5 6 12 6 1 5 5 6 2 2 5 7 6 10 9 8 9 9 9 8 8
21 19 14 10 5 1 2 2 2 4 5 0 2 3 2 1 2 2 5 2 2 3 3 5 3 3 5 3 1 2 5 3 2 2 2 5 9 9 12 11 10 11 9 9 7
24 21 16 10 5 2 4 3 1 2 4 2 1 3 3 3 2 1 3 1 2 3 2 5 2 1 3 3 5 3 6 5 3 2 2 2 7 7 9 7 8 9 9 8 10
27 24 19 13 2 4 3 5 4 1 4 4 4 3 3 2 2 2 3 1 2 5 4 4 1 2 4 3 2 4 3 6 8 5 3 4 5 5 11 15 13 9 9 9 9
29 27 24 18 1 4 4 15 8 4 1 3 3 1 1 4 6 3 2 1 5 3 5 2 3 2 2 2 2 3 2 6 4 2 3 2 2 7 6 11 17 12 11 10 9
31 30 25 10 1 4 5 8 4 5 7 3 4 5 5 1 2 3 1 4 3 5 7 2 0 3 3 3 1 6 6 8 5 2 2 4 6 6 6 11 8 9 12 12 10
34 33 20 13 4 8 4 4 4 5 3 6 6 8 4 5 4 4 5 4 6 5 2 2 2 2 4 6 7 3 5 3 3 3 6 3 4 9 7 8 11 19 16 13 13
37 34 18 6 4 7 3 4 6 5 8 3 5 9 7 6 3 6 7 4 6 3 4 6 4 7 3 4 7 6 5 5 7 3 4 4 6 7 5 8 7 12 15 15 12
39 10 8 5 8 3 4 7 9 8 9 10 5 5 3 4 6 4 9 7 9 10 7 5 1 1 4 2 2 5 4 4 6 2 3 4 7 10 3 2 4 11 16 16 13
10 8 7 21 16 4 2 16 5 6 8 4 9 5 9 8 7 7 11 6 6 11 3 8 4 1 1 1 1 2 4 3 3 2 4 4 4 7 7 9 7 11 17 15 13
8 6 9 24 6 3 11 8 5 5 5 8 7 6 5 9 8 7 10 2 8 6 6 5 5 1 2 7 8 2 2 1 2 4 5 2 6 7 11 13 16 15 16 18 16
7 4 11 16 6 3 11 8 5 6 3 5 5 5 9 11 7 7 12 4 10 10 10 3 5 4 7 2 2 4 6 6 4 5 3 3 7 3 2 7 12 14 14 14 14
7 4 2 9 10 12 5 7 4 8 6 7 8 4 4 9 4 7 8 0 6 9 12 9 1 3 5 3 2 6 7 4 4 3 6 4 7 2 2 2 9 12 12 13 14
4 5 2 2 1 22 22 11 15 8 5 5 6 5 5 3 0 8 5 1 4 3 6 7 3 7 9 5 6 6 7 10 7 3 4 10 13 13 7 8 8 9 13 14 16
3 4 6 9 15 17 23 14 17 13 9 10 5 8 10 5 3 4 3 2 5 2 3 5 7 5 4 3 4 4 6 17 14 20 9 18 13 26 13 13 13 14 11 13 16
4 4 2 3 12 19 18 22 30 26 17 11 11 13 8 9 9 9 8 4 6 1 5 1 2 3 2 4 3 4 8 12 19 7 15 21 22 2 8 6 8 12 15 18 19
1 2 2 9 15 18 21 35 39 25 16 25 19 13 14 7 5 7 5 9 7 11 8 6 6 3 5 2 3 5 17 17 7 7 12 15 29 5 8 11 13 14 18 21 20
Wind_Direction
287 310 323 334 338 341 344 342 345 342 344 346 345 340 334 338 330 34 45 309 306 309 314 270 346 309 8 16 14 69 79 148 171 146 159 138 97 20 25 76 50 62 98 133 83
265 299 323 329 329 333 338 341 341 337 337 346 343 340 335 341 316 58 312 328 312 312 329 32 25 354 30 6 7 67 92 89 206 150 144 115 120 132 87 81 74 77 71 81 69
246 283 306 311 320 328 335 337 335 337 335 338 341 335 329 328 21 9 344 335 316 309 270 306 290 139 60 18 338 50 116 141 13 100 114 128 73 40 129 59 144 146 123 97 77
234 254 287 301 314 320 326 331 331 333 336 331 338 332 321 304 189 332 345 331 319 302 276 288 12 76 81 48 332 94 54 81 42 86 90 94 87 67 33 137 131 121 115 100 85
229 229 263 291 307 315 324 327 326 325 332 321 338 334 334 67 331 326 339 336 336 314 13 45 87 99 110 109 57 72 78 51 89 81 75 82 88 125 102 118 109 103 91 98 93
217 223 243 278 296 309 318 322 322 321 318 319 333 329 345 57 294 337 335 340 4 25 6 32 95 110 77 58 79 107 87 85 65 82 92 110 137 85 204 145 133 120 120 109 102
213 216 222 254 291 303 314 315 317 312 309 315 328 319 65 138 320 339 354 347 351 10 63 1 27 77 114 82 108 105 77 42 102 119 127 123 120 132 172 154 146 137 141 132 130
206 205 224 242 272 299 311 309 305 299 298 304 317 353 111 246 324 358 344 27 19 23 81 29 61 88 84 115 65 79 85 117 242 140 169 103 251 194 179 154 172 166 165 156 150
197 190 211 229 253 287 299 301 298 288 285 293 337 106 9 324 47 318 30 30 308 45 35 43 68 83 54 100 58 284 182 138 227 197 153 165 235 202 175 170 186 185 183 172 168
200 183 197 219 251 283 299 292 287 319 266 271 284 49 354 186 300 319 332 324 80 97 64 69 69 94 60 85 189 189 207 147 175 223 155 195 226 203 195 181 188 192 188 181 173
196 186 188 201 223 286 338 353 56 9 41 294 130 120 137 62 63 17 348 352 234 29 119 47 93 184 196 201 126 173 146 130 131 105 157 222 218 207 213 204 193 197 189 186 176
190 182 187 194 198 233 71 238 210 159 117 53 90 65 71 73 112 24 18 129 134 132 98 37 187 178 137 163 108 28 125 98 56 156 158 227 241 207 206 215 193 190 191 184 169
180 175 179 176 165 132 170 217 220 166 95 180 183 176 171 142 82 172 5 106 117 121 148 153 168 173 149 139 126 37 158 180 158 143 347 314 284 197 227 206 198 199 186 173 166
174 168 166 150 147 179 205 210 165 301 66 209 217 207 147 162 73 303 355 98 65 141 112 102 252 180 142 121 112 148 321 131 132 120 210 132 274 239 208 208 211 195 169 169 164
172 165 162 167 295 174 217 151 136 60 352 146 153 61 57 149 133 354 300 340 130 86 110 188 144 135 112 92 21 166 117 126 125 104 69 209 77 276 159 220 219 197 180 181 173
170 163 160 186 11 259 150 103 64 56 243 166 127 154 125 143 93 126 25 32 120 81 37 82 317 56 119 31 80 138 72 43 41 59 353 211 170 268 200 223 209 196 195 175 166
167 161 158 145 187 190 129 81 59 176 280 202 175 157 160 159 146 140 155 167 152 113 163 51 19 348 127 75 353 52 90 13 349 357 221 339 168 246 232 230 199 197 189 170 165
166 159 166 157 144 129 92 63 189 213 189 158 114 111 171 153 204 166 130 201 253 129 124 155 286 174 207 193 185 186 163 160 204 197 256 355 234 251 214 246 197 187 174 157 162
158 157 157 161 118 85 106 205 203 195 158 138 75 107 210 162 139 150 168 199 204 185 159 144 196 16 52 358 127 195 197 164 103 57 56 225 272 297 206 142 144 153 158 167 164
159 150 175 148 124 79 103 224 190 150 125 148 162 151 169 181 151 183 168 206 191 186 177 181 97 343 285 5 347 178 165 84 352 168 264 279 268 249 247 212 181 172 174 169 162
147 160 150 131 94 100 213 212 204 185 141 155 178 141 163 173 170 193 195 250 179 170 138 135 108 307 99 214 181 148 233 21 141 160 188 241 253 221 230 191 198 188 182 172 170
150 176 160 142 142 189 214 171 212 186 167 190 125 110 164 165 161 197 200 231 148 142 164 162 119 164 208 273 264 194 194 162 137 234 235 147 260 227 228 224 194 191 179 175 167
168 105 187 161 175 209 192 176 241 174 181 182 187 160 162 164 129 188 194 278 197 147 162 179 186 71 349 340 328 216 200 149 121 90 210 142 262 206 282 201 201 181 178 171 161
129 125 108 236 164 199 199 196 205 179 190 158 161 107 109 106 225 166 143 348 14 78 99 108 138 163 191 186 134 200 193 177 140 134 190 227 264 256 224 222 192 190 185 172 172
175 184 169 184 213 197 190 182 201 200 207 159 189 190 166 136 80 142 106 88 16 101 66 132 190 154 230 171 179 212 177 186 195 220 196 249 218 253 218 212 207 195 165 163 173
154 157 163 164 200 195 204 212 199 208 179 202 212 185 189 165 179 181 136 191 179 75 152 49 230 111 302 234 218 232 229 195 216 252 259 262 272 163 251 178 167 182 176 182 182
18 133 180 168 187 182 202 212 211 191 218 210 196 165 194 209 124 122 115 114 138 153 172 147 135 111 251 42 63 295 214 210 192 199 217 230 244 135 223 205 209 186 189 187 188